Orbital Elements at Epoch 2459000.5 (2020-May-31.0) TDB
Reference: JPL 30 (heliocentric ecliptic J2000)
Element | Value | Uncertainty (1-sigma) | Units |
e | .06838216678984242 | 3.5306e-08 | |
a | 3.140464756395302 | 1.9867e-08 | au |
q | 2.925712971625857 | 1.1246e-07 | au |
i | 14.54746547187999 | 4.2642e-06 | deg |
node | 166.7165370325553 | 1.5764e-05 | deg |
peri | 90.1755674563552 | 3.6397e-05 | deg |
M | 221.9936036140402 | 3.4287e-05 | deg |
tp | 2459779.766537798131 (2022-Jul-19.26653780) | 0.000196 | TDB |
period | 2032.775008650742 5.57 | 1.929e-05 5.281e-08 | d yr |
n | .1770978088907885 | 1.6805e-09 | deg/d |
Q | 3.355216541164747 | 2.1226e-08 | au |
|
| | Orbit Determination Parameters
Additional Information
|